DECAYED

STARLINK-31227, 59026 (Decayed)

Orbit data source: Space-Track

STARLINK-31227, 59026 was a payload satellite owned by SpaceX/Seattle (US) in LEO that was launched on Sun, 25 Feb 2024 UTC via an FALCON 9 launch vehicle from the Air Force Eastern Test Range (AFETR). Payload-class satellites include a variety of spacecraft equipped with specific instruments for various scientific and technological missions. These include communications satellites like Starlink; space stations such as the ISS; scientific satellites like the Hubble; Earth observation satellites from companies like Planet Labs, Umbra, and HawkEye 360; GPS; miniature CubeSats for education and research; and military/defense satellites.

Not visible in the next 10 days
Identifier
59026, 2024-038D
Orbit
Decayed
Country
Flag of USUS
Related business
Manufacturer
SpaceX/Seattle
Mission
Decayed Commercial Communications
Bus & Motor
STARLINK V2M, Unknown motor
Mass
730 kg wet, ~700 kg dry
Launch date (UTC)
2024-02-25 (2 years ago)
Launch vehicle
FALCON 9
Launch site
Air Force Eastern Test Range (AFETR)
Object type
Payload
Rocket body
Debris
Shape & HBR
Box + 2 Pan, 17.7 m
Radar Cross Section
33.884 m², Large (>1 m²)

Expand to show TLE details & history
Last TLE update: 5 months ago

TLE from 5 months ago
0 STARLINK-31227
1 59026U 24038D   26027.95949804  .09956635  89240-5  41612-2 0  9991
2 59026  42.9914 245.1809 0005787 256.8032 103.2209 16.22052838108659
Epoch: 2026-01-27T23:01Z
TLE epoch observation values (Epoch: 2026-01-27T23:01:40.630Z)
Latitude
-0.00001°
Longitude
132.52818°
Altitude
214.624 km
Speed
7.779 km/s
True Right ascension
16h 20m 43s
True Declination
0° 00' 00"
Sunlit
Object was in daylight at epoch
Visualization orbit readout
Latitude
Unknown
Longitude
Unknown
Altitude
Unknown
Speed
Unknown
Apparent Right ascension
Unknown
Apparent Declination
Unknown
Sunlit
N/A
Visualization observer readout
Local Sidereal Time
21:55:36
Azimuth
Unknown
Elevation
Unknown
Doppler factor
Unknown
Orbital elements
Apogee altitude
219.826 km
Perigee altitude
212.194 km
Semi-major axis
6,594.147 km
Eccentricity
0.00058
Inclination
42.9914°
RAAN
245.1809°
Arg. of periapsis
256.8032°
True anomaly
103.28545°
Mean anomaly
103.2209°
Eccentric anomaly
103.25317°
Mean motion
4.05327 °/min
Orbital period
88.82 mins
BSTAR
0.0041612
Loading maneuver chart data...
Computing Atmospheric mass density...
Loading historical data...
Loading historical data...
Loading historical data...
Loading historical data...
Loading historical data...
Loading historical data...
Loading historical data...

Documentation

Showing up to 5 results
|